Location: Grand Moustoir
(47.8355°N, 3.3120°W)
Time: 13:26:58
(UTC+00:00)

PAYLOAD B - Pass Details

Date: 20 January 2020
Orbit: 850 x 871 km, 99.1° (Epoch: 20 February)

Event Time Altitude Azimuth Distance (km) Brightness Sun altitude
Rises 06:17:21 0° 12° (NNE) 3,469 7.4 -15.9°
Reaches altitude 10° 06:19:46 10° 9° (N) 2,529 6.6 -15.6°
Maximum altitude 06:25:17 61° 291° (WNW) 986 4.2 -14.6°
Drops below altitude 10° 06:30:47 10° 212° (SSW) 2,513 6.5 -13.8°
Sets 06:33:11 0° 209° (SSW) 3,446 7.2 -13.4°
